Regional Weather Roundup
Issued by NWS San Angelo, TX

Home | Current Version | Previous Version | Text Only | Print | Product List | Glossary On
Versions: 1 2 3 4 5 6 7 8 9 10 11 12 13 14 15 16 17 18 19 20 21 22 23 24 25 26 27 28 29 30 31 32 33 34 35 36 37 38 39 40 41 42 43 44 45 46 47 48 49 50
000
ASUS44 KSJT 010502
RWRSJT
WEST CENTRAL TEXAS REGIONAL WEATHER ROUNDUP
NATIONAL WEATHER SERVICE SAN ANGELO TX
1200 AM CDT SUN MAY 01 2016

NOTE: "FAIR" INDICATES FEW OR NO CLOUDS BELOW 12,000 FEET WITH NO
SIGNIFICANT WEATHER AND/OR OBSTRUCTIONS TO VISIBILITY.

TXZ049-054-064>066-071>073-076>078-098-099-113-114-127-128-139-140-
154-155-168>170-010600
...LOCATIONS ACROSS WEST CENTRAL TEXAS...

CITY           SKY/WX    TMP DP  RH WIND       PRES   REMARKS
SAN ANGELO     CLEAR     61  47  59 E10       29.87R
ABILENE        CLEAR     63  51  65 E9        29.89S
DYESS AFB      CLEAR     62  52  68 NE8       29.88S
JUNCTION       CLEAR     63  51  65 E5        29.85S
SWEETWATER     NOT AVBL
BROWNWOOD      PTCLDY    64  55  72 NE6       29.89R
COLEMAN        CLEAR     61  52  71 NE6       29.89S
SONORA         NOT AVBL
OZONA          NOT AVBL
BRADY          NOT AVBL
$$

TEXAS PANHANDLE/OKLAHOMA PANHANDLE

CITY           SKY/WX    TMP DP  RH WIND       PRES   REMARKS
AMARILLO       LGT RAIN  46  36  68 N18       30.07R WCI  39
BORGER         CLOUDY    49  32  52 N18G24    30.07R
CANADIAN       CLEAR     49  38  65 NW10      30.04R
DALHART        CLOUDY    45  30  55 N21G28    30.09R WCI  37
DUMAS          MOCLDY    43  32  64 N18G28    30.09R WCI  35
GUYMON         NOT AVBL
HEREFORD       CLOUDY    47  40  77 NE18G24   30.04R WCI  39
PAMPA          NOT AVBL
PERRYTON       NOT AVBL
$$

SOUTHERN PANHANDLE/SOUTH PLAINS/ROLLING PLAINS

CITY           SKY/WX    TMP DP  RH WIND       PRES   REMARKS
LUBBOCK        PTCLDY    55  39  54 NE20      29.95R
SNYDER           N/A     63  46  54 NE14      29.91R
CHILDRESS      CLEAR     57  40  52 N13       29.96R
SEMINOLE       CLEAR     64  39  39 E14       29.88R
$$

PERMIAN BASIN

CITY           SKY/WX    TMP DP  RH WIND       PRES   REMARKS
MIDLAND        CLEAR     66  41  40 E15       29.84S
ODESSA         CLEAR     66  41  40 E16       29.84S
WINK           PTCLDY    69  38  32 E16G26    29.78R
$$

FAR WEST/SOUTHWEST MOUNTAINS/TRANS PECOS

CITY           SKY/WX    TMP DP  RH WIND       PRES   REMARKS
ALPINE         PTCLDY    65  29  25 S6        29.89S
DRYDEN           N/A     76  37  24 SE16G24   29.76R
EL PASO        PTCLDY    67  17  14 NW6       29.77R
FORT STOCKTON  CLEAR     71  30  21 SE14G20   29.78R
GUADALUPE PASS NOT AVBL
MARFA          CLEAR     54  15  21 VRB7      29.86S
PECOS          NOT AVBL
$$

DALLAS/FORT WORTH METROPLEX

CITY           SKY/WX    TMP DP  RH WIND       PRES   REMARKS
DFW AIRPORT    PTCLDY    66  60  81 N5        29.89R
FTW MEACHAM    CLEAR     65  55  70 NE5       29.89R
DAL-EXECUTIVE  CLEAR     63  58  83 N3        29.89R
GRAND PRAIRIE  CLEAR     66  57  74 CALM      29.91R
ADDISON        NOT AVBL
MESQUITE       CLEAR     64  62  94 NW3       29.89S
LANCASTER      CLEAR     65  57  75 CALM      29.90R
$$

NORTH CENTRAL TEXAS

CITY           SKY/WX    TMP DP  RH WIND       PRES   REMARKS
SHRMAN/DENISON NOT AVBL
GAINESVILLE    NOT AVBL
BRIDGEPORT     PTCLDY    59  54  83 NE3       29.93S
DENTON         CLEAR     59  56  89 N6        29.90R
WAXAHACHIE     CLEAR     64  59  86 N5        29.90S
GRANBURY       CLEAR     62  56  81 CALM      29.91R
$$

WESTERN NORTH TEXAS

CITY           SKY/WX    TMP DP  RH WIND       PRES   REMARKS
WICHITA FALLS  CLEAR     55  50  83 NE8       29.94R
VERNON         CLEAR     56  45  66 N7        29.96S
BRECKENRIDGE   NOT AVBL
COMANCHE       CLEAR     61  56  82 NE8       29.90S
$$

CENTRAL AND SOUTH CENTRAL TEXAS

CITY           SKY/WX    TMP DP  RH WIND       PRES   REMARKS
AUSTIN/BERGSTM CLEAR     70  66  87 NE3       29.82R
WACO           CLEAR     64  61  90 N6        29.87R
HILLSBORO      CLEAR     64  60  84 N9        29.89R
TEMPLE         CLEAR     67  64  90 N8        29.87R
KILLEEN-GRAY   CLEAR     67  62  86 NE10      29.86R
FORT HOOD      CLEAR     66  62  88 NE9       29.84R
GEORGETOWN       N/A    N/A N/A N/A MISG        N/A
LAGO VISTA     FAIR      69  64  84 NE9       29.86R
SAN MARCOS     CLEAR     70  66  88 NE6       29.83R
NEW BRAUNFELS  CLEAR     71  66  84 NE8       29.80R
RANDOLPH AFB   CLEAR     70  67  90 NE5       29.81R FOG
SAN ANTONIO    PTCLDY    70  63  78 NE6       29.82R
STINSON        CLEAR     76  64  66 NE7       29.78R
PLEASANTON     NOT AVBL
LA GRANGE      NOT AVBL
GIDDINGS       CLEAR     71  67  88 NE3       29.86R
$$

EAST TEXAS

CITY           SKY/WX    TMP DP  RH WIND       PRES   REMARKS
PARIS          CLEAR     63  54  72 NW7       29.88S
CLARKSVILLE    NOT AVBL
TYLER          MOCLDY    68  63  84 N7        29.86R
LONGVIEW       MOCLDY    70  66  87 N3        29.84R
PALESTINE      CLEAR     67  65  92 N3        29.87R
NACOGDOCHES    PTCLDY    70  66  88 N6        29.83R
$$

TEXAS HILL COUNTRY AND EDWARDS PLATEAU

CITY           SKY/WX    TMP DP  RH WIND       PRES   REMARKS
LLANO          NOT AVBL
HORSESHOE BAY  FAIR      68  63  83 CALM      29.85R
KERRVILLE      CLEAR     64  58  82 CALM      29.86R
FREDERICKSBRG  NOT AVBL
ROCKSPRINGS    CLEAR     66  50  55 CALM      29.86F
HONDO          CLEAR     63  59  87 NE8       29.82R
UVALDE         NOT AVBL
DEL RIO        CLEAR     73  54  51 E8        29.74F
$$

SOUTHEAST TEXAS

CITY           SKY/WX    TMP DP  RH WIND       PRES   REMARKS
COLLEGE STN    CLEAR     73  68  84 NE12      29.83R
CALDWELL       NOT AVBL
CROCKETT       CLEAR     70  66  88 N3        29.87R
BRENHAM        NOT AVBL
HUNTSVILLE     CLEAR     72  68  87 VRB3      29.84R
CONROE         CLEAR     69  68  96 NW5       29.82R
HOUSTON BUSH   PTCLDY    73  73 100 E3        29.80R
HOUSTON HOBBY  MOCLDY    77  74  90 E3        29.78S
PERLAND        MOCLDY    77  75  93 E3        29.80R
WHARTON        PTCLDY    75  73  93 E3        29.80R FOG
$$

THE UPPER TEXAS COAST

CITY           SKY/WX    TMP DP  RH WIND       PRES   REMARKS
ORANGE         CLOUDY    77  74  90 S5        29.83R FOG
PORT ARTHUR    CLOUDY    77  75  93 SE7       29.80S FOG
GALVESTON      CLOUDY    77  77 100 SE8       29.80R FOG
ANGLETON       CLOUDY    77  75  93 E3        29.77S FOG
BAY CITY       CLOUDY    75  75 100 CALM      29.77S FOG
$$

TEXAS COASTAL BEND, RIO GRANDE PLAINS DEEP SOUTH TEXAS

CITY           SKY/WX    TMP DP  RH WIND       PRES   REMARKS
VICTORIA       CLOUDY    75  73  93 E5        29.78R FOG
BEEVILLE       FAIR      74  73  96 E3        29.77S
ROCKPORT       MOCLDY    79  74  84 E12       29.75S
PORT ARANSAS   NOT AVBL
PORT LAVACA    MOCLDY    77  75  94 E6        29.77S FOG
CORPUS CHRISTI MOCLDY    79  74  84 E10       29.76R
KINGSVILLE NAS CLOUDY    75  75 100 E6        29.75S FOG
COTULLA        CLEAR     77  62  59 E9        29.76S
LAREDO         CLOUDY    77  60  55 NE9       29.75R
BROWNSVILLE    CLOUDY    78  77  96 E6        29.73S FOG
PORT ISABEL    CLOUDY    79  77  94 E6        29.72S FOG
HEBBRONVILLE   NOT AVBL
MCALLEN        CLOUDY    82  74  76 E9        29.73S
WESLACO        NOT AVBL
FALFURRIAS     CLOUDY    75  71  88 CALM      29.74F
EDINBURG       MOCLDY    78  74  87 CALM      29.73S FOG
$$



USA.gov is the U.S. government's official web portal to all federal, state and local government web resources and services.